Change the Weather History Date:

Saturday, November 24, 2012

  Actual Average Record
Temperature  
Mean Temperature 19 °F -  
Max Temperature 24 °F 36 °F 55 °F (2006)
Min Temperature 14 °F 11 °F -9 °F (1997)
Degree Days  
Heating Degree Days 46    
Moisture  
Dew Point 14 °F    
Average Humidity 78    
Maximum Humidity 93    
Minimum Humidity 65    
Precipitation  
Precipitation 0.10 in - - ()
Sea Level Pressure  
Sea Level Pressure 30.03 in    
Wind  
Wind Speed 3 mph (South)    
Max Wind Speed 8 mph    
Max Gust Speed -    
Visibility 6 miles    
Events Snow    
Averages and records for this station are not official NWS values.
T = Trace of Precipitation, MM = Missing Value Source: NWS Daily Summary

Daily Weather History Graph

Daily Weather History Graph

Search for Another Location

Airport or City:

Trip Planner

Search our weather history database for the weather conditions in past years. The results will help you decide how hot, cold, wet, or windy it might be!

Date:

Astronomy

Nov. 24, 2012 Rise Set
Actual Time 7:19 AM CST 4:25 PM CST
Civil Twilight 6:45 AM CST 4:59 PM CST
Nautical Twilight 6:08 AM CST 5:36 PM CST
Astronomical Twilight 5:33 AM CST 6:11 PM CST
Moon 2:18 PM CST (11/24) 3:26 AM CST (11/24)
Length of Visible Light 10h 13m
Length of Day
9h 06m
Waxing Gibbous, 87% of the Moon is Illuminated
Nov 24
Waxing Gibbous
Nov 28
Full
Dec 6
Last Quarter
Dec 13
New
Dec 19
First Quarter

Hourly Weather History & Observations

Time (CST) Temp. Windchill Dew Point Humidity Pressure Visibility Wind Dir Wind Speed Gust Speed Precip Events Conditions
12:53 AM 16.0 °F 10.4 °F 10.0 °F 77% 30.33 in 7.0 mi Variable 3.5 mph - 0.00 in   Overcast
1:53 AM 16.0 °F - 10.0 °F 77% 30.32 in 8.0 mi Calm Calm - 0.00 in Snow Light Snow
2:53 AM 16.0 °F - 10.0 °F 77% 30.32 in 6.0 mi Calm Calm - 0.00 in Snow Light Snow
3:53 AM 15.1 °F - 10.0 °F 80% 30.32 in 8.0 mi Calm Calm - 0.00 in   Overcast
4:53 AM 15.1 °F - 10.0 °F 80% 30.30 in 7.0 mi Calm Calm - 0.00 in   Overcast
5:53 AM 15.1 °F 9.4 °F 10.0 °F 80% 30.31 in 9.0 mi West 3.5 mph - 0.00 in   Overcast
6:03 AM 15.8 °F - 10.4 °F 79% 30.23 in 9.0 mi Calm Calm - N/A   Overcast
6:53 AM 14.0 °F 8.2 °F 10.0 °F 84% 30.30 in 9.0 mi West 3.5 mph - 0.00 in Snow Light Snow
7:53 AM 15.1 °F 9.4 °F 10.9 °F 84% 30.29 in 6.0 mi SSW 3.5 mph - 0.00 in   Overcast
8:53 AM 15.1 °F 7.7 °F 9.0 °F 77% 30.27 in 5.0 mi South 4.6 mph - 0.00 in Snow Light Snow
9:53 AM 15.1 °F - 10.0 °F 80% 30.27 in 8.0 mi Calm Calm - 0.00 in   Overcast
10:53 AM 17.1 °F 10.0 °F 10.0 °F 74% 30.23 in 10.0 mi Variable 4.6 mph - N/A   Overcast
11:53 AM 19.9 °F 13.4 °F 12.0 °F 71% 30.19 in 10.0 mi Variable 4.6 mph - N/A   Mostly Cloudy
12:11 PM 19.4 °F 10.4 °F 10.4 °F 68% 30.09 in 10.0 mi South 6.9 mph - N/A   Scattered Clouds
12:53 PM 21.0 °F 14.6 °F 12.0 °F 68% 30.14 in 10.0 mi SSW 4.6 mph - N/A   Clear
1:53 PM 21.9 °F - 12.0 °F 66% 30.09 in 10.0 mi Calm Calm - N/A   Overcast
2:53 PM 23.0 °F 18.4 °F 12.9 °F 65% 30.05 in 10.0 mi South 3.5 mph - N/A   Overcast
3:53 PM 23.0 °F - 12.9 °F 65% 30.05 in 10.0 mi Calm Calm - N/A   Overcast
4:53 PM 21.9 °F 15.7 °F 12.0 °F 66% 30.01 in 10.0 mi SE 4.6 mph - N/A   Overcast
5:53 PM 23.0 °F 13.9 °F 12.9 °F 65% 29.96 in 10.0 mi SE 8.1 mph - N/A   Overcast
6:46 PM 23.0 °F 14.7 °F 14.0 °F 68% 29.86 in 4.0 mi SSE 6.9 mph - 0.00 in Snow Light Snow
6:53 PM 23.0 °F 13.9 °F 14.0 °F 68% 29.94 in 5.0 mi South 8.1 mph - 0.00 in Snow Light Snow
7:05 PM 23.0 °F 13.9 °F 15.8 °F 74% 29.86 in 9.0 mi SE 8.1 mph - 0.00 in   Overcast
7:53 PM 24.1 °F 16.0 °F 15.1 °F 69% 29.92 in 10.0 mi South 6.9 mph - 0.00 in   Overcast
8:17 PM 23.0 °F 17.0 °F 15.8 °F 74% 29.86 in 2.0 mi Variable 4.6 mph - 0.00 in Snow Light Snow
8:25 PM 23.0 °F 17.0 °F 17.6 °F 80% 29.86 in 1.5 mi Variable 4.6 mph - 0.00 in Snow Light Snow
8:34 PM 23.0 °F - 17.6 °F 80% 29.86 in 0.8 mi Calm Calm - 0.00 in Snow Light Snow
8:42 PM 23.0 °F - 17.6 °F 80% 29.86 in 0.8 mi Calm Calm - 0.01 in Snow Light Snow
8:53 PM 21.9 °F 17.2 °F 19.0 °F 89% 29.92 in 0.8 mi South 3.5 mph - 0.04 in Snow Light Snow
9:34 PM 21.2 °F 14.9 °F 19.4 °F 93% 29.83 in 1.0 mi South 4.6 mph - 0.03 in Snow Light Snow
9:53 PM 23.0 °F 14.7 °F 19.0 °F 85% 29.88 in 1.0 mi South 6.9 mph - 0.04 in Snow Light Snow
10:03 PM 23.0 °F - 19.4 °F 86% 29.82 in 0.8 mi Calm Calm - 0.01 in Snow Light Snow
10:12 PM 23.0 °F - 19.4 °F 86% 29.81 in 1.0 mi Calm Calm - 0.01 in Snow Light Snow
10:24 PM 23.0 °F 17.0 °F 19.4 °F 86% 29.81 in 0.8 mi South 4.6 mph - 0.02 in Snow Light Snow
10:30 PM 23.0 °F 17.0 °F 19.4 °F 86% 29.81 in 1.0 mi South 4.6 mph - 0.02 in Snow Light Snow
10:38 PM 23.0 °F 17.0 °F 19.4 °F 86% 29.80 in 1.8 mi Variable 4.6 mph - 0.02 in Snow Light Snow
10:43 PM 23.0 °F 17.0 °F 19.4 °F 86% 29.80 in 3.0 mi South 4.6 mph - 0.02 in Snow Light Snow
10:51 PM 23.0 °F 18.4 °F 19.4 °F 86% 29.80 in 4.0 mi South 3.5 mph - 0.02 in Snow Light Snow
10:53 PM 23.0 °F 18.4 °F 19.9 °F 88% 29.86 in 5.0 mi South 3.5 mph - 0.02 in Snow Light Snow
11:53 PM 24.1 °F - 19.9 °F 84% 29.85 in 10.0 mi Calm Calm - 0.00 in   Overcast